Location: Delmar
(42.6220°N, 73.8326°W)
Time: 06:01:29
(UTC+00:00)

ATLAS 2AS CENTAUR R/B - Pass Details

Date: 29 October 2020
Orbit: 939 x 1273 km, 63.7° (Epoch: 23 November)

Event Time Altitude Azimuth Distance (km) Brightness Sun altitude
Rises 23:37:09 0° 325° (NW) 4,157 6.3 -20.0°
Reaches altitude 10° 23:40:16 10° 333° (NNW) 3,148 5.5 -20.5°
Maximum altitude 23:47:14 39° 41° (NE) 1,657 3.4 -21.8°
Enters shadow 23:48:39 35° 66° (ENE) 1,725 3.3 -22.1°
